STARLINK-32801, 63035

Orbit data source: Space-Track

STARLINK-32801, 63035 is a payload satellite owned by SpaceX/Seattle (US) in LEO that was launched on Tue, 18 Feb 2025 UTC via an FALCON 9 launch vehicle from the Air Force Eastern Test Range (AFETR). Payload-class satellites include a variety of spacecraft equipped with specific instruments for various scientific and technological missions. These include communications satellites like Starlink; space stations such as the ISS; scientific satellites like the Hubble; Earth observation satellites from companies like Planet Labs, Umbra, and HawkEye 360; GPS; miniature CubeSats for education and research; and military/defense satellites.

Loading next visibility...
Identifier
63035, 2025-034G
Orbit
LEO
Country
Flag of USUS
Related business
Manufacturer
SpaceX/Seattle
Mission
Operational Commercial Communications
Bus & Motor
STARLINK V2M, Unknown motor
Mass
730 kg wet, ~700 kg dry
Launch date (UTC)
2025-02-18 (1 year ago)
Launch vehicle
FALCON 9
Launch site
Air Force Eastern Test Range (AFETR)
Object type
Payload
Rocket body
Debris
Shape & HBR
Box + 2 Pan, 17.7 m
Radar Cross Section
33.884 m², Large (>1 m²)

Expand to show TLE details & history
Last TLE update: 16 hours ago

TLE from 16 hours ago
0 STARLINK-32801
1 63035U 25034G   26171.18681587  .00015251  00000-0  46193-3 0  9992
2 63035  53.1588 141.0403 0001243  88.3392 271.7753 15.34376970 74788
Epoch: 2026-06-20T04:29Z
TLE epoch observation values (Epoch: 2026-06-20T04:29:00.891Z)
Latitude
Longitude
165.38154°
Altitude
463.647 km
Speed
7.636 km/s
True Right ascension
09h 24m 09s
True Declination
0° 00' 00"
Sunlit
Object was in daylight at epoch
Visualization orbit readout
Latitude
Unknown
Longitude
Unknown
Altitude
Unknown
Speed
Unknown
Apparent Right ascension
Unknown
Apparent Declination
Unknown
Sunlit
N/A
Visualization observer readout
Local Sidereal Time
07:17:24
Azimuth
Unknown
Elevation
Unknown
Doppler factor
Unknown
Orbital elements
Apogee altitude
463.879 km
Perigee altitude
462.178 km
Semi-major axis
6,841.166 km
Eccentricity
0.00012
Inclination
53.1588°
RAAN
141.0403°
Arg. of periapsis
88.3392°
True anomaly
271.76106°
Mean anomaly
271.7753°
Eccentric anomaly
271.76818°
Mean motion
3.83573 °/min
Orbital period
93.85 mins
BSTAR
0.00046193
Loading maneuver chart data...
Computing Atmospheric mass density...
Loading historical data...
Loading historical data...
Loading historical data...
Loading historical data...
Loading historical data...
Loading historical data...
Loading historical data...

Documentation

Showing up to 5 results
|